Other Public Products
Issued by NWS Grand Forks, ND

Home | Current Version | Previous Version | Graphics & Text | Print | Product List | Glossary On
Versions: 1 2 3 4 5 6 7 8 9 10 11 12 13 14 15 16 17 18 19 20 21 22 23 24 25 26 27 28 29 30 31 32 33 34 35 36 37 38 39 40 41 42 43 44 45 46 47 48 49 50
884
FPUS83 KFGF 161110
OPUFGF
PRAIRIE TO PINES WEATHER ROUNDUP
NATIONAL WEATHER SERVICE EASTERN NORTH DAKOTA/GRAND FORKS ND
500 AM CST MON JAN 16 2017

 **SATELLITE DATA USED TO AUGMENT SKY COVER AT AUTOMATED STATIONS**
 *****  WEATHER ACROSS EASTERN NORTH DAKOTA  *****

CITY           SKY/WX    TMP DP  RH WIND       PRES   REMARKS
GRAND FORKS    FAIR       5  -1  76 S7        30.03F WCI  -7
GRAND FORKS AF FAIR       5  -1  76 W7        30.02F WCI  -7
GRAND CITY NWS NOT AVBL
BUXTON         NOT AVBL
DEVILS LAKE    FAIR      10   4  76 SW10      29.98F WCI  -4
FARGO          FAIR      11   8  88 S8        30.07F WCI  -1
WAHPETON ARPT  FAIR       9   5  85 SE6       30.11R WCI  -1
$$

 *****  WEATHER ACROSS CENTRAL AND WESTERN NORTH DAKOTA  *****

CITY           SKY/WX    TMP DP  RH WIND       PRES   REMARKS
JAMESTOWN      FAIR      14   5  67 NW5       30.04R WCI   6
BISMARCK       FAIR      -7 -12  79 CALM      30.07R
MINOT          FAIR      16   8  71 SW12      30.00R WCI   3
MINOT AFB      NOT AVBL
GARRISON         N/A     13   5  70 W9        30.01S WCI   1
WILLISTON      FAIR      11   6  81 NW8       30.07R WCI  -1
DICKINSON      FAIR      15   6  67 W14       30.00F WCI   0
HETTINGER      FAIR      12   4  70 NW6       30.05F WCI   3
$$

 *****  OTHER OBSERVATIONS NORTHEAST NORTH DAKOTA  *****

CITY           SKY/WX    TMP DP  RH WIND       PRES   REMARKS
WALHALLA       NOT AVBL
LANGDON        NOT AVBL
CAVALIER         N/A      7   3  85 S6        29.99F WCI  -3
GRAFTON        FAIR      10   5  79 SW14      30.03F WCI  -5
CANDO          NOT AVBL
FORT TOTTEN      N/A     15   6  68 SW3       29.95S
ROLLA            N/A    N/A N/A N/A MISG        N/A
RUGBY            N/A      1   0  92 SW12      29.99F WCI -15
 ***** THE ABOVE OBSERVATIONS ARE NON NWS ARE NOT QUALITY
        CONTROLLED AND MAY MIS-REPORT RAIN FOR SNOW...
$$

 *****  OTHER OBSERVATIONS SOUTHEAST NORTH DAKOTA *****

CITY           SKY/WX    TMP DP  RH WIND       PRES   REMARKS
COOPERSTOWN    FAIR       5   0  78 W5        30.02F WCI  -4
VALLEY CITY    FAIR      12   7  79 W7        30.05S WCI   2
OAKES          NOT AVBL
GWINNER        FAIR      12   9  85 SW10      30.07S WCI  -1
SHEYENNE NWR     N/A      3  -2  79 S3        29.95S
BUFFALO        NOT AVBL
WYNDMERE       NOT AVBL
 ***** THE ABOVE OBSERVATIONS ARE NON NWS ARE NOT QUALITY
       CONTROLLED AND MAY MIS-REPORT RAIN FOR SNOW...
$$

  *****  WEATHER ACROSS NORTHERN MINNESOTA  *****

CITY           SKY/WX    TMP DP  RH WIND       PRES   REMARKS
FLAG ISLAND    FAIR       7   3  85 S9        30.00S WCI  -7
WARROAD        FAIR      10   7  85 SW5       30.00F WCI   2
ROSEAU         FAIR       7   1  78 S9        29.99F WCI  -7
HALLOCK        FAIR       7   1  78 S10       30.00F WCI  -8
THF RVR FALLS  FAIR       7   4  87 S10       30.03F WCI  -8
HALSTAD        NOT AVBL
FOSSTON        FAIR      12  10  92 S10       30.04F WCI  -1
BAUDETTE       FAIR       5   3  91 S6        30.00F WCI  -6
WASKISH        FAIR      14  10  85 CALM      30.03S
CROOKSTON      FAIR       7   5  92 S9        30.06F WCI  -7
$$
  *****  WEATHER ACROSS CENTRAL AND WEST MINNESOTA  *****

CITY           SKY/WX    TMP DP  RH WIND       PRES   REMARKS
BEMIDJI        FAIR       8   6  91 CALM      30.03F
PARK RAPIDS    FAIR       4  -2  76 S8        30.06F HAZE    WCI  -9
WADENA         FAIR       1  -2  85 SE3       30.09S
DETROIT LAKES  FAIR      12  10  92 S9        30.07F FOG     WCI   0
MOORHEAD       FAIR      12   9  85 MISG      30.08F
FERGUS FALLS   FAIR      16  12  86 SE6       30.15S WCI   7
ELBOW LAKE     FAIR      14  13  94 SE8       30.10S FOG     WCI   3
MORRIS MN      FAIR      10   7  85 SE9       30.11R FOG     WCI  -2
STAPLES        FAIR       1  -2  85 CALM      30.11R FOG
WHEATON        FAIR       9   5  85 E5        30.13R WCI   0
$$
  *****  WEATHER ELSEWHERE ACROSS MINNESOTA  *****

CITY           SKY/WX    TMP DP  RH WIND       PRES   REMARKS
DULUTH         FAIR      16  14  92 W12       30.09F FOG     WCI   3
INTRNTL FALLS  FAIR       3   1  91 S3        30.03F
ELY            FAIR       9   9 100 CALM      30.06F
CLOQUET        FAIR      16  12  86 SW6       30.11S FOG     WCI   7
BRAINERD       FAIR       2  -1  88 CALM      30.12F FOG
HIBBING        FAIR      -4  -7  87 NW3       30.07F FOG
ALEXANDRIA     FAIR      10   9  95 S5        30.10S FOG     WCI   2
SAINT CLOUD    FAIR      10   8  92 SE3       30.15R FOG
MINNEAPOLIS    FAIR      17  13  84 S7        30.18F WCI   8
$$

  *****  WEATHER ACROSS SOUTH DAKOTA  *****

CITY           SKY/WX    TMP DP  RH WIND       PRES   REMARKS
SIOUX FALLS    CLOUDY    24  20  84 CALM      30.09F
BROOKINGS      FAIR      14  10  84 CALM      30.09F
WATERTOWN      FAIR      11  10  96 CALM      30.08R FOG
HURON          FAIR       7   5  91 CALM      30.11S
SISSETON         N/A     17  13  84 E3        30.08S
ABERDEEN       FAIR       0  -5  79 S6        30.10S WCI -12
MITCHELL       FAIR      18  15  88 NW6       30.09F WCI  10
PIERRE         FAIR       9   6  88 W5        30.08S WCI   1
MOBRIDGE       FAIR      -1  -6  79 SE3       30.04F
RAPID CITY     FAIR      26   9  48 W8        30.05R WCI  18
$$

  *****  SOME WEATHER IN NEARBY STATES *****

CITY           SKY/WX    TMP DP  RH WIND       PRES   REMARKS
GLASGOW MT     FAIR       3  -2  79 NW7       30.09R WCI  -9
GREAT FALLS MT FAIR      23   9  55 S17       30.12R WCI   9
CHEYENNE WY    CLOUDY    30  18  60 N18       29.97R WCI  18
SCOTTSBLUFF NE CLOUDY    33  27  78 W8        29.99F
OMAHA NE       LGT RAIN  33  29  85 NE6       30.06F FOG
DES MOINES IA  FRZ RAIN  32  29  88 E7        30.13F FOG
DAVENPORT IA   FRZ RAIN  31  30  96 E10       30.22F FOG     WCI  22
CHICAGO IL     FRZ RAIN  32  28  85 CALM      30.26F
EAU CLAIRE WI  FAIR       4   1  88 CALM      30.21S FOG
LA CROSSE WI   FAIR     N/A N/A N/A SE5       30.23F
$$

  *****  SOME NATIONAL WEATHER *****

CITY           SKY/WX    TMP DP  RH WIND       PRES   REMARKS
LA GUARDIA NY  FAIR      32  18  56 N5        30.45R
RALEIGH NC     CLOUDY    46  29  51 E8        30.39R
ATLANTA GA     FAIR      54  48  80 E3        30.26R
NEW ORLEANS LA FAIR      64  63  96 SE8       30.10F
OKLAHOMA CITY  CLOUDY    41  40  96 SW7       29.84F
ALBUQUERQUE NM MOCLDY    36  36 100 CALM      29.91S
SALT LAKE CITY CLOUDY    26  22  84 NW7       30.23S WCI  18
LOS ANGELES CA CLOUDY    55  52  89 NE5       30.05F
BOISE ID       FAIR       1  -4  79 CALM      30.43S HAZE
SEATTLE WA     FAIR      33  28  81 CALM      30.25S
$$

*** WEATHER ACROSS MANITOBA...SASKATCHEWAN AND ONTARIO ***
                ***ONTARIO***

CITY           SKY/WX    TMP DP  RH WIND       PRES   REMARKS
GERALDTON      MOCLDY    23  16  74 W8        29.95R WCI  14
THUNDER BAY    CLEAR      1   0  92 NW3       30.06S
SIOUX LOOKOUT  MOCLDY    12   9  85 S5        29.99S WCI   4
TORONTO        CLEAR     23  18  80 SW6       30.32S WCI  16
BIG TROUT LK   CLOUDY    18  16  93 N10       29.93R WCI   6
PICKLE LAKE    CLEAR     14  10  85 W8        29.93  WCI   3
DRYDEN         PTCLDY    12   9  85 SW7       30.00R WCI   2
KENORA         PTCLDY    10   7  85 S9        29.98S WCI  -2
$$
                *** MANITOBA***

CITY           SKY/WX    TMP DP  RH WIND       PRES   REMARKS
BRANDON        PTCLDY     9   3  78 W13       29.98R WCI  -7
DAUPHIN        CLOUDY    25  18  74 W12       29.97R WCI  14
ISLAND LAKE    LGT SNOW  19  18  93 VRB2      29.94R
PILOT MOUND      N/A      5   1  85 W1          N/A
THE PAS        CLEAR     18  14  86 S3        29.91R
THOMPSON       FLURRIES  18  16  93 E6        29.92S WCI   9
WINNIPEG       MOCLDY     7   1  78 S6        29.99S WCI  -3
LYNN LAKE      CLOUDY    23  23 100 S6        29.81S WCI  16
CHURCHILL      CRYSTALS -15 -20  76 W7        30.06R WCI -31
GILLAM         MOCLDY    -4  -9  77 N7        30.02R WCI -18
$$
                ***SASKATCHEWAN***

CITY           SKY/WX    TMP DP  RH WIND       PRES   REMARKS
ESTEVAN        PTCLDY     9   7  92 W14       30.02F WCI  -8
KINDERSLEY     PTCLDY    12   9  85 S8        30.02R WCI   1
LLOYDMINSTER   CLEAR     23  16  74 SW12      29.92F WCI  12
PRINCE ALBERT  CLEAR      1  -2  85 CALM      29.95R
REGINA         CLEAR     12  10  92 CALM      30.01F
YORKTON        CLEAR     14  14 100 SW5       29.97S WCC1F1C2F2C3F3C4F4C5F5C6F6C7F7C8F8C9F9CaFaCbFbCcFcCdFdCe!



USA.gov is the U.S. government's official web portal to all federal, state and local government web resources and services.